This is the latest recevied weather packets stored in our database for station/object WB4ZUT. If no packets are shown the sender has not sent any weather packets the latest 10 day(s).
| Time | Temp. | Humidity | Pressure | Rain* | Wind** | Luminosity | Snow |
|---|---|---|---|---|---|---|---|
| 1778100250 | 16.67° C | 55% | 1014.9 hPa | 0 mm | - | 315 W/m² | - |
| 1778099947 | 17.22° C | 55% | 1014.9 hPa | 0 mm | - | 417 W/m² | - |
| 1778099644 | 17.22° C | 57% | 1015 hPa | 0 mm | - | 457 W/m² | - |
| 1778099341 | 17.22° C | 56% | 1015.1 hPa | 0 mm | - | 445 W/m² | - |
| 1778099038 | 16.67° C | 54% | 1015 hPa | 0 mm | - | 544 W/m² | - |
| 1778098735 | 16.67° C | 57% | 1014.8 hPa | 0 mm | - | 596 W/m² | - |
| 1778098432 | 17.22° C | 57% | 1015 hPa | 0 mm | - | 541 W/m² | - |
| 1778098129 | 17.22° C | 59% | 1014.7 hPa | 0 mm | - | 533 W/m² | - |
| 1778097825 | 17.78° C | 59% | 1014.8 hPa | 0 mm | - | 551 W/m² | - |
| 1778097521 | 16.67° C | 60% | 1014.7 hPa | 0 mm | - | 855 W/m² | - |
| 1778097219 | 16.67° C | 61% | 1015 hPa | 0 mm | - | 724 W/m² | - |
| 1778096916 | 16.67° C | 61% | 1015 hPa | 0 mm | - | 537 W/m² | - |
| 1778096612 | 16.67° C | 61% | 1014.9 hPa | 0 mm | - | 635 W/m² | - |
| 1778096310 | 16.67° C | 58% | 1015 hPa | 0 mm | - | 643 W/m² | - |
| 1778096006 | 16.67° C | 58% | 1015 hPa | 0 mm | - | 480 W/m² | - |
| 1778095702 | 16.67° C | 60% | 1014.9 hPa | 0 mm | - | 463 W/m² | - |
| 1778095399 | 16.11° C | 59% | 1014.8 hPa | 0 mm | - | 603 W/m² | - |
| 1778095096 | 16.11° C | 59% | 1015 hPa | 0 mm | - | 448 W/m² | - |
| 1778094793 | 16.11° C | 61% | 1014.7 hPa | 0 mm | - | 439 W/m² | - |
| 1778094490 | 16.11° C | 60% | 1014.8 hPa | 0 mm | - | 580 W/m² | - |
| 1778094186 | 16.11° C | 58% | 1015 hPa | 0 mm | - | 558 W/m² | - |
| 1778093883 | 16.67° C | 62% | 1014.9 hPa | 0 mm | - | 551 W/m² | - |
| 1778093580 | 16.11° C | 57% | 1014.9 hPa | 0 mm | - | 727 W/m² | - |
| 1778093277 | 16.11° C | 57% | 1015 hPa | 0 mm | - | 562 W/m² | - |
| 1778092974 | 16.67° C | 60% | 1014.8 hPa | 0 mm | - | 726 W/m² | - |
* Rain latest hour (hover to see other rain measurements)
** Current wind speed in m/s (hover to see current wind gust speed)